EJU32DZ LPPS-LPPR

Flight info

Callsign EJU32DZ
Flight time 1h 24m
Altitude 34000
Route DEGUN DCT VABEM DCT ASMAR DCT DIRMA DCT ASMOV
Aircraft A320/M-SDE2E3FGHIJ1RWXYZ/LB1

Departure

Time 2026-05-07 16:45
Airport Porto Santo Airport (LPPS)

Arrival

Time 2026-05-07 18:10
Airport Francisco de Sá Carneiro Airport (LPPR)
Time Latitude Longitude Altitude Speed Heading
2026-05-07 16:15 33.07032 -16.34665 249 ft 0 kts 221°
2026-05-07 16:39 33.07025 -16.34673 249 ft 3 kts 222°
2026-05-07 16:39 33.06995 -16.34706 249 ft 8 kts 223°
2026-05-07 16:39 33.06966 -16.34784 249 ft 13 kts 263°
2026-05-07 16:39 33.06962 -16.34909 250 ft 16 kts 269°
2026-05-07 16:40 33.07020 -16.34981 251 ft 16 kts 357°
2026-05-07 16:40 33.07143 -16.34984 251 ft 19 kts 358°
2026-05-07 16:40 33.07272 -16.34990 253 ft 18 kts 357°
2026-05-07 16:40 33.07396 -16.34996 250 ft 18 kts 358°
2026-05-07 16:41 33.07530 -16.35002 245 ft 19 kts 358°
2026-05-07 16:41 33.07659 -16.35006 246 ft 17 kts 358°
2026-05-07 16:41 33.07776 -16.35010 244 ft 16 kts 358°
2026-05-07 16:41 33.07892 -16.35014 242 ft 17 kts 358°
2026-05-07 16:42 33.08000 -16.35018 243 ft 14 kts 358°
2026-05-07 16:42 33.08082 -16.35021 246 ft 10 kts 358°
2026-05-07 16:42 33.08144 -16.35024 247 ft 10 kts 358°
2026-05-07 16:42 33.08231 -16.35026 247 ft 15 kts 359°
2026-05-07 16:43 33.08353 -16.35029 249 ft 18 kts 359°
2026-05-07 16:43 33.08462 -16.35033 252 ft 14 kts 358°
2026-05-07 16:43 33.08546 -16.35037 253 ft 11 kts 358°
2026-05-07 16:43 33.08619 -16.35039 252 ft 8 kts
2026-05-07 16:44 33.08671 -16.35007 251 ft 8 kts 32°
2026-05-07 16:44 33.08698 -16.35035 250 ft 6 kts 249°
2026-05-07 16:44 33.08667 -16.35044 250 ft 5 kts 176°
2026-05-07 16:44 33.08510 -16.35036 253 ft 54 kts 178°
2026-05-07 16:45 33.07905 -16.35013 242 ft 117 kts 178°
2026-05-07 16:45 33.06927 -16.34977 288 ft 160 kts 178°
2026-05-07 16:45 33.05826 -16.34935 953 ft 156 kts 179°
2026-05-07 16:45 33.04739 -16.34908 1651 ft 158 kts 180°
2026-05-07 16:46 33.03583 -16.34887 2049 ft 177 kts 181°
2026-05-07 16:46 33.02275 -16.34863 2355 ft 199 kts 181°
2026-05-07 16:46 33.00799 -16.34832 2680 ft 224 kts 180°
2026-05-07 16:46 32.99159 -16.34794 3124 ft 247 kts 181°
2026-05-07 16:47 32.97422 -16.34503 3842 ft 259 kts 162°
2026-05-07 16:47 32.95897 -16.33303 4651 ft 271 kts 133°
2026-05-07 16:47 32.95026 -16.31295 5451 ft 281 kts 102°
2026-05-07 16:47 32.95133 -16.28966 6235 ft 288 kts 69°
2026-05-07 16:48 32.96246 -16.27006 6956 ft 290 kts 36°
2026-05-07 16:48 32.97919 -16.25655 7718 ft 293 kts 28°
2026-05-07 16:48 32.99654 -16.24350 8502 ft 298 kts 28°
2026-05-07 16:48 33.01424 -16.23022 9275 ft 303 kts 28°
2026-05-07 16:49 33.03223 -16.21664 10023 ft 309 kts 27°
2026-05-07 16:49 33.05083 -16.20258 10405 ft 328 kts 28°
2026-05-07 16:49 33.07077 -16.18752 10631 ft 351 kts 28°
2026-05-07 16:49 33.09177 -16.17160 11106 ft 362 kts 28°
2026-05-07 16:50 33.11315 -16.15525 11803 ft 367 kts 28°
2026-05-07 16:50 33.13467 -16.13872 12533 ft 370 kts 28°
2026-05-07 16:50 33.15637 -16.12204 13289 ft 372 kts 28°
2026-05-07 16:50 33.17820 -16.10524 13997 ft 374 kts 28°
2026-05-07 16:51 33.20020 -16.08829 14627 ft 378 kts 28°
2026-05-07 16:51 33.22247 -16.07126 15231 ft 382 kts 28°
2026-05-07 16:51 33.24496 -16.05406 15814 ft 386 kts 28°
2026-05-07 16:51 33.26768 -16.03665 16389 ft 390 kts 28°
2026-05-07 16:52 33.29061 -16.01903 16962 ft 394 kts 28°
2026-05-07 16:52 33.31383 -16.00115 17532 ft 398 kts 28°
2026-05-07 16:52 33.33727 -15.98304 18037 ft 404 kts 28°
2026-05-07 16:52 33.36107 -15.96465 18484 ft 410 kts 28°
2026-05-07 16:53 33.38519 -15.94601 18915 ft 415 kts 28°
2026-05-07 16:53 33.40958 -15.92718 19353 ft 420 kts 28°
2026-05-07 16:53 33.43437 -15.90807 19769 ft 426 kts 28°
2026-05-07 16:53 33.45939 -15.88879 20241 ft 430 kts 29°
2026-05-07 16:54 33.48429 -15.86954 20670 ft 434 kts 29°
2026-05-07 16:54 33.50976 -15.84985 21085 ft 439 kts 29°
2026-05-07 16:54 33.53556 -15.82989 21501 ft 444 kts 29°
2026-05-07 16:54 33.56162 -15.80971 21896 ft 448 kts 29°
2026-05-07 16:55 33.58797 -15.78932 22297 ft 453 kts 29°
2026-05-07 16:55 33.61453 -15.76873 22693 ft 457 kts 29°
2026-05-07 16:55 33.64135 -15.74790 23082 ft 462 kts 29°
2026-05-07 16:55 33.66841 -15.72684 23463 ft 466 kts 29°
2026-05-07 16:56 33.69578 -15.70553 23794 ft 470 kts 29°
2026-05-07 16:56 33.72331 -15.68407 24122 ft 474 kts 30°
2026-05-07 16:56 33.77909 -15.64053 24892 ft 477 kts 30°
2026-05-07 16:57 33.80716 -15.61865 25044 ft 486 kts 30°
2026-05-07 16:57 33.83531 -15.59669 25249 ft 492 kts 31°
2026-05-07 16:57 33.86410 -15.57418 25534 ft 495 kts 31°
2026-05-07 16:57 33.89308 -15.55151 25851 ft 498 kts 31°
2026-05-07 16:58 33.92225 -15.52868 26168 ft 501 kts 31°
2026-05-07 16:58 33.95159 -15.50574 26471 ft 504 kts 31°
2026-05-07 16:58 33.98112 -15.48265 26780 ft 508 kts 31°
2026-05-07 16:58 34.01078 -15.45940 27105 ft 510 kts 32°
2026-05-07 16:59 34.04060 -15.43594 27432 ft 513 kts 32°
2026-05-07 16:59 34.07058 -15.41232 27725 ft 516 kts 32°
2026-05-07 16:59 34.10069 -15.38861 28023 ft 519 kts 32°
2026-05-07 16:59 34.13108 -15.36469 28309 ft 522 kts 32°
2026-05-07 17:00 34.16152 -15.34073 28587 ft 525 kts 32°
2026-05-07 17:00 34.19216 -15.31655 28854 ft 527 kts 32°
2026-05-07 17:00 34.22298 -15.29224 29114 ft 530 kts 33°
2026-05-07 17:00 34.25396 -15.26781 29366 ft 533 kts 33°
2026-05-07 17:01 34.28504 -15.24326 29629 ft 535 kts 33°
2026-05-07 17:01 34.31623 -15.21853 29942 ft 538 kts 33°
2026-05-07 17:01 34.34761 -15.19355 30166 ft 540 kts 33°
2026-05-07 17:01 34.37908 -15.16850 30413 ft 542 kts 33°
2026-05-07 17:02 34.41059 -15.14349 30752 ft 541 kts 33°
2026-05-07 17:02 34.44202 -15.11858 31162 ft 538 kts 33°
2026-05-07 17:02 34.47326 -15.09379 31564 ft 536 kts 33°
2026-05-07 17:02 34.50443 -15.06907 31943 ft 534 kts 33°
2026-05-07 17:03 34.53546 -15.04438 32321 ft 532 kts 33°
2026-05-07 17:03 34.56635 -15.01973 32726 ft 530 kts 33°
2026-05-07 17:03 34.59707 -14.99520 33112 ft 528 kts 33°
2026-05-07 17:03 34.62774 -14.97073 33471 ft 526 kts 33°
2026-05-07 17:04 34.65829 -14.94636 33859 ft 524 kts 33°
2026-05-07 17:04 34.68875 -14.92204 34079 ft 525 kts 33°
2026-05-07 17:04 34.71932 -14.89752 34247 ft 527 kts 33°
2026-05-07 17:04 34.74993 -14.87292 34489 ft 527 kts 33°
2026-05-07 17:05 34.78050 -14.84832 34774 ft 526 kts 33°
2026-05-07 17:05 34.81097 -14.82382 35060 ft 525 kts 33°
2026-05-07 17:05 34.84143 -14.79934 35342 ft 524 kts 32°
2026-05-07 17:05 34.87177 -14.77494 35633 ft 522 kts 32°
2026-05-07 17:06 34.90205 -14.75059 35888 ft 521 kts 32°
2026-05-07 17:06 34.93228 -14.72626 35971 ft 520 kts 32°
2026-05-07 17:06 34.99251 -14.67760 35972 ft 519 kts 32°
2026-05-07 17:07 35.05274 -14.62891 35969 ft 519 kts 32°
2026-05-07 17:07 35.11287 -14.58026 35969 ft 519 kts 32°
2026-05-07 17:08 35.17268 -14.53179 35969 ft 520 kts 32°
2026-05-07 17:08 35.23286 -14.48282 35964 ft 520 kts 32°
2026-05-07 17:09 35.29307 -14.43377 35965 ft 520 kts 33°
2026-05-07 17:09 35.35320 -14.38462 35964 ft 520 kts 33°
2026-05-07 17:10 35.41339 -14.33543 35993 ft 520 kts 33°
2026-05-07 17:10 35.47357 -14.28624 35980 ft 520 kts 33°
2026-05-07 17:11 35.53367 -14.23690 35975 ft 520 kts 33°
2026-05-07 17:11 35.59377 -14.18747 35936 ft 520 kts 33°
2026-05-07 17:12 35.65383 -14.13797 35947 ft 520 kts 33°
2026-05-07 17:12 35.71385 -14.08846 35974 ft 520 kts 33°
2026-05-07 17:13 35.76379 -14.04731 35971 ft 519 kts 33°
2026-05-07 17:13 35.82375 -13.99773 35968 ft 519 kts 33°
2026-05-07 17:14 35.88365 -13.94801 35970 ft 519 kts 33°
2026-05-07 17:14 35.94354 -13.89826 35990 ft 519 kts 34°
2026-05-07 17:15 36.00343 -13.84849 35943 ft 518 kts 34°
2026-05-07 17:15 36.06319 -13.79865 35948 ft 518 kts 34°
2026-05-07 17:16 36.12291 -13.74869 35955 ft 518 kts 34°
2026-05-07 17:16 36.18264 -13.69871 35955 ft 518 kts 34°
2026-05-07 17:17 36.24242 -13.64863 35973 ft 518 kts 34°
2026-05-07 17:17 36.30208 -13.59850 35967 ft 518 kts 34°
2026-05-07 17:18 36.36170 -13.54832 35968 ft 518 kts 34°
2026-05-07 17:18 36.42135 -13.49802 35962 ft 518 kts 34°
2026-05-07 17:19 36.48051 -13.44796 35952 ft 518 kts 34°
2026-05-07 17:19 36.54014 -13.39760 35956 ft 518 kts 34°
2026-05-07 17:20 36.59965 -13.34720 35954 ft 518 kts 34°
2026-05-07 17:20 36.65904 -13.29661 35953 ft 517 kts 34°
2026-05-07 17:21 36.71846 -13.24597 35956 ft 517 kts 34°
2026-05-07 17:21 36.77784 -13.19531 35978 ft 517 kts 34°
2026-05-07 17:22 36.83714 -13.14478 35973 ft 516 kts 34°
2026-05-07 17:22 36.89630 -13.09421 35935 ft 515 kts 34°
2026-05-07 17:23 36.95542 -13.04337 35942 ft 516 kts 35°
2026-05-07 17:23 37.01454 -12.99250 35964 ft 516 kts 34°
2026-05-07 17:24 37.07369 -12.94170 35966 ft 515 kts 34°
2026-05-07 17:24 37.13264 -12.89089 35964 ft 514 kts 35°
2026-05-07 17:25 37.19149 -12.83988 35963 ft 514 kts 35°
2026-05-07 17:25 37.25024 -12.78890 35952 ft 513 kts 35°
2026-05-07 17:26 37.30896 -12.73790 35941 ft 513 kts 34°
2026-05-07 17:26 37.36762 -12.68695 35945 ft 513 kts 34°
2026-05-07 17:27 37.42628 -12.63592 35944 ft 513 kts 34°
2026-05-07 17:27 37.48493 -12.58480 35943 ft 512 kts 35°
2026-05-07 17:28 37.54343 -12.53357 35967 ft 512 kts 35°
2026-05-07 17:28 37.60183 -12.48239 35970 ft 511 kts 35°
2026-05-07 17:29 37.66011 -12.43131 35967 ft 510 kts 35°
2026-05-07 17:29 37.71821 -12.38014 35926 ft 509 kts 34°
2026-05-07 17:30 37.77639 -12.32889 35928 ft 510 kts 34°
2026-05-07 17:30 37.83462 -12.27750 35929 ft 510 kts 34°
2026-05-07 17:31 37.89279 -12.22599 35932 ft 511 kts 35°
2026-05-07 17:31 37.95095 -12.17435 35933 ft 511 kts 35°
2026-05-07 17:32 38.00923 -12.12261 35937 ft 511 kts 35°
2026-05-07 17:32 38.06741 -12.07088 35960 ft 510 kts 35°
2026-05-07 17:33 38.12549 -12.01912 35924 ft 510 kts 35°
2026-05-07 17:33 38.18355 -11.96727 35930 ft 510 kts 35°
2026-05-07 17:34 38.24165 -11.91529 35928 ft 511 kts 35°
2026-05-07 17:34 38.29966 -11.86308 35954 ft 511 kts 35°
2026-05-07 17:35 38.35769 -11.81100 35959 ft 510 kts 35°
2026-05-07 17:35 38.41561 -11.75884 35958 ft 509 kts 35°
2026-05-07 17:36 38.47335 -11.70662 35954 ft 509 kts 35°
2026-05-07 17:36 38.53110 -11.65437 35950 ft 509 kts 35°
2026-05-07 17:37 38.58878 -11.60216 35962 ft 508 kts 35°
2026-05-07 17:37 38.64638 -11.54989 35956 ft 507 kts 35°
2026-05-07 17:38 38.70351 -11.49792 35954 ft 507 kts 35°
2026-05-07 17:38 38.76095 -11.44556 35949 ft 507 kts 35°
2026-05-07 17:39 38.81829 -11.39311 35963 ft 506 kts 35°
2026-05-07 17:39 38.87557 -11.34062 35961 ft 505 kts 35°
2026-05-07 17:40 38.93280 -11.28813 35930 ft 505 kts 35°
2026-05-07 17:40 38.98996 -11.23568 35932 ft 505 kts 35°
2026-05-07 17:41 39.04710 -11.18303 35948 ft 505 kts 35°
2026-05-07 17:41 39.10414 -11.13039 35955 ft 504 kts 35°
2026-05-07 17:42 39.16112 -11.07770 35955 ft 504 kts 35°
2026-05-07 17:42 39.21804 -11.02498 35952 ft 503 kts 35°
2026-05-07 17:43 39.27485 -10.97222 35949 ft 503 kts 35°
2026-05-07 17:43 39.33164 -10.91936 35944 ft 503 kts 34°
2026-05-07 17:44 39.38834 -10.86660 35948 ft 502 kts 34°
2026-05-07 17:44 39.44494 -10.81367 35946 ft 502 kts 35°
2026-05-07 17:45 39.50096 -10.75973 35946 ft 502 kts 43°
2026-05-07 17:45 39.54885 -10.69413 35961 ft 502 kts 48°
2026-05-07 17:46 39.59623 -10.62758 35951 ft 502 kts 48°
2026-05-07 17:46 39.64348 -10.56104 35920 ft 502 kts 47°
2026-05-07 17:47 39.69072 -10.49437 35924 ft 502 kts 47°
2026-05-07 17:47 39.73802 -10.42752 35927 ft 502 kts 47°
2026-05-07 17:48 39.78528 -10.36057 35927 ft 503 kts 47°
2026-05-07 17:48 39.83251 -10.29354 35857 ft 503 kts 47°
2026-05-07 17:49 39.85609 -10.26004 35602 ft 501 kts 47°
2026-05-07 17:49 39.87964 -10.22658 35350 ft 500 kts 47°
2026-05-07 17:49 39.90309 -10.19320 35086 ft 500 kts 46°
2026-05-07 17:49 39.92651 -10.15977 34631 ft 499 kts 47°
2026-05-07 17:50 39.95014 -10.12603 33465 ft 509 kts 47°
2026-05-07 17:50 39.97402 -10.09196 32455 ft 510 kts 47°
2026-05-07 17:50 39.99795 -10.05774 31628 ft 511 kts 47°
2026-05-07 17:50 40.02175 -10.02360 30978 ft 506 kts 47°
2026-05-07 17:51 40.04538 -9.98963 30290 ft 504 kts 47°
2026-05-07 17:51 40.06884 -9.95588 29533 ft 502 kts 47°
2026-05-07 17:51 40.09220 -9.92229 28868 ft 496 kts 47°
2026-05-07 17:51 40.11525 -9.88916 28203 ft 491 kts 47°
2026-05-07 17:52 40.13811 -9.85628 27539 ft 486 kts 48°
2026-05-07 17:52 40.16070 -9.82371 26875 ft 482 kts 48°
2026-05-07 17:52 40.18308 -9.79143 26245 ft 477 kts 48°
2026-05-07 17:52 40.20531 -9.75934 25613 ft 474 kts 48°
2026-05-07 17:53 40.22734 -9.72751 24997 ft 470 kts 48°
2026-05-07 17:53 40.24913 -9.69598 24443 ft 464 kts 49°
2026-05-07 17:53 40.27051 -9.66498 23826 ft 454 kts 49°
2026-05-07 17:53 40.29150 -9.63452 23242 ft 447 kts 49°
2026-05-07 17:54 40.31221 -9.60445 22693 ft 441 kts 49°
2026-05-07 17:54 40.33263 -9.57479 22185 ft 436 kts 49°
2026-05-07 17:54 40.35277 -9.54546 21662 ft 430 kts 49°
2026-05-07 17:54 40.37269 -9.51641 21156 ft 426 kts 49°
2026-05-07 17:55 40.39235 -9.48772 20640 ft 421 kts 49°
2026-05-07 17:55 40.41185 -9.45920 20109 ft 417 kts 49°
2026-05-07 17:55 40.43113 -9.43095 19595 ft 414 kts 49°
2026-05-07 17:55 40.45024 -9.40292 19070 ft 411 kts 49°
2026-05-07 17:56 40.46281 -9.38449 18721 ft 409 kts 49°
2026-05-07 17:56 40.48167 -9.35688 18179 ft 402 kts 49°
2026-05-07 17:56 40.50021 -9.32979 17617 ft 395 kts 49°
2026-05-07 17:56 40.51849 -9.30311 17105 ft 392 kts 50°
2026-05-07 17:57 40.53663 -9.27655 16600 ft 389 kts 50°
2026-05-07 17:57 40.55461 -9.25015 16075 ft 386 kts 50°
2026-05-07 17:57 40.57242 -9.22388 15596 ft 384 kts 50°
2026-05-07 17:57 40.59583 -9.18928 14936 ft 381 kts 50°
2026-05-07 17:58 40.60770 -9.17175 14608 ft 380 kts 50°
2026-05-07 17:58 40.62526 -9.14582 14111 ft 378 kts 50°
2026-05-07 17:58 40.64273 -9.12004 13596 ft 377 kts 50°
2026-05-07 17:58 40.66012 -9.09436 13068 ft 374 kts 50°
2026-05-07 17:59 40.67735 -9.06893 12558 ft 370 kts 50°
2026-05-07 17:59 40.69439 -9.04375 12061 ft 367 kts 50°
2026-05-07 17:59 40.71108 -9.01906 11563 ft 364 kts 50°
2026-05-07 17:59 40.72779 -8.99429 11046 ft 361 kts 50°
2026-05-07 18:00 40.74442 -8.96962 10545 ft 358 kts 51°
2026-05-07 18:00 40.76103 -8.94490 10251 ft 349 kts 51°
2026-05-07 18:00 40.77663 -8.92170 10127 ft 336 kts 51°
2026-05-07 18:00 40.79203 -8.89887 9997 ft 319 kts 51°
2026-05-07 18:01 40.80621 -8.87788 9731 ft 304 kts 51°
2026-05-07 18:01 40.82011 -8.85722 9153 ft 299 kts 51°
2026-05-07 18:01 40.83381 -8.83680 8508 ft 297 kts 51°
2026-05-07 18:01 40.84753 -8.81635 8113 ft 296 kts 51°
2026-05-07 18:02 40.87463 -8.77584 7348 ft 293 kts 51°
2026-05-07 18:02 40.88812 -8.75564 6938 ft 291 kts 51°
2026-05-07 18:02 40.90148 -8.73564 6378 ft 290 kts 50°
2026-05-07 18:03 40.91484 -8.71563 5920 ft 289 kts 50°
2026-05-07 18:03 40.92798 -8.69594 5698 ft 279 kts 50°
2026-05-07 18:03 40.94038 -8.67740 5418 ft 263 kts 49°
2026-05-07 18:03 40.95247 -8.65931 4897 ft 261 kts 48°
2026-05-07 18:04 40.96408 -8.64191 4734 ft 245 kts 48°
2026-05-07 18:04 40.97579 -8.62650 4606 ft 233 kts 32°
2026-05-07 18:04 40.99017 -8.61799 4474 ft 223 kts
2026-05-07 18:04 41.00515 -8.61739 4343 ft 211 kts 347°
2026-05-07 18:05 41.01934 -8.62122 4212 ft 205 kts 345°
2026-05-07 18:05 41.03339 -8.62501 3911 ft 209 kts 345°
2026-05-07 18:05 41.04777 -8.62886 3576 ft 212 kts 345°
2026-05-07 18:05 41.06218 -8.63272 3232 ft 210 kts 346°
2026-05-07 18:06 41.07619 -8.63639 3090 ft 198 kts 347°
2026-05-07 18:06 41.08905 -8.63967 3039 ft 181 kts 344°
2026-05-07 18:06 41.10114 -8.64277 2889 ft 175 kts 345°
2026-05-07 18:06 41.11312 -8.64589 2631 ft 175 kts 346°
2026-05-07 18:07 41.12496 -8.64898 2392 ft 172 kts 345°
2026-05-07 18:07 41.13669 -8.65203 2168 ft 171 kts 347°
2026-05-07 18:07 41.14833 -8.65505 1933 ft 169 kts 343°
2026-05-07 18:07 41.15957 -8.65795 1731 ft 159 kts 344°
2026-05-07 18:08 41.17001 -8.66064 1523 ft 146 kts 343°
2026-05-07 18:08 41.17979 -8.66318 1321 ft 141 kts 347°
2026-05-07 18:08 41.18926 -8.66568 1129 ft 137 kts 345°
2026-05-07 18:08 41.19861 -8.66816 954 ft 136 kts 345°
2026-05-07 18:09 41.20790 -8.67061 776 ft 135 kts 346°
2026-05-07 18:09 41.21717 -8.67304 626 ft 134 kts 345°
2026-05-07 18:09 41.22636 -8.67556 419 ft 135 kts 345°
2026-05-07 18:09 41.23552 -8.67797 249 ft 134 kts 347°
2026-05-07 18:10 41.24370 -8.68013 211 ft 100 kts 348°
2026-05-07 18:10 41.24860 -8.68142 203 ft 47 kts 349°
2026-05-07 18:10 41.25079 -8.68167 194 ft 24 kts
2026-05-07 18:10 41.25212 -8.68133 182 ft 16 kts 19°
2026-05-07 18:11 41.25286 -8.68092 179 ft 9 kts 39°
2026-05-07 18:11 41.25294 -8.68049 180 ft 7 kts 102°
2026-05-07 18:11 41.25222 -8.68003 197 ft 11 kts 169°
2026-05-07 18:11 41.25140 -8.67981 188 ft 13 kts 169°
2026-05-07 18:12 41.25038 -8.67955 197 ft 17 kts 169°
2026-05-07 18:12 41.24910 -8.67922 208 ft 19 kts 167°
2026-05-07 18:12 41.24789 -8.67844 205 ft 20 kts 152°
2026-05-07 18:12 41.24670 -8.67804 211 ft 18 kts 168°
2026-05-07 18:13 41.24549 -8.67772 221 ft 18 kts 169°
2026-05-07 18:13 41.24424 -8.67739 224 ft 18 kts 169°
2026-05-07 18:13 41.24312 -8.67704 232 ft 15 kts 155°
2026-05-07 18:13 41.24249 -8.67612 238 ft 13 kts 126°
2026-05-07 18:14 41.24190 -8.67519 240 ft 14 kts 134°
2026-05-07 18:14 41.24104 -8.67444 242 ft 15 kts 158°
2026-05-07 18:14 41.24022 -8.67417 242 ft 9 kts 172°
2026-05-07 18:14 41.23969 -8.67437 241 ft 8 kts 215°
2026-05-07 18:15 41.23967 -8.67508 238 ft 11 kts 320°
2026-05-07 18:15 41.24047 -8.67535 238 ft 10 kts 348°
2026-05-07 18:15 41.24066 -8.67585 239 ft 8 kts 258°
2026-05-07 18:15 41.24058 -8.67635 234 ft 1 kts 258°
2026-05-07 18:16 41.24057 -8.67641 234 ft 0 kts 258°